When you browse on this site, cookies collect data to enhance your experience and personalize the content and advertising you see.
Visit our Privacy Policy to learn more. By continuing to use the site, you agree to this use of cookies and data.

Hourly Weather Maidstone

Today, 4 July, Saturday

Time Temperature Precipitation Wind Pressure Humidity
00:00 +15°C° 0 mm 9 mps 758 mmHg 85%
01:00 +15°C° 0.1 mm 9 mps 758 mmHg 87%
02:00 +15°C° 0.1 mm 9 mps 757 mmHg 90%
03:00 +15°C° 0.1 mm 9 mps 757 mmHg 93%
04:00 +15°C° 0.1 mm 9 mps 757 mmHg 93%
05:00 +16°C° 0.1 mm 8 mps 757 mmHg 93%
06:00 +16°C° 0.1 mm 8 mps 757 mmHg 93%
07:00 +17°C° 0.1 mm 8 mps 757 mmHg 92%
08:00 +17°C° 0.1 mm 8 mps 757 mmHg 91%
09:00 +17°C° 0.1 mm 8 mps 757 mmHg 90%
10:00 +18°C° 0 mm 8 mps 757 mmHg 88%
11:00 +18°C° 0 mm 8 mps 757 mmHg 86%
12:00 +20°C° 0 mm 8 mps 757 mmHg 84%
13:00 +20°C° 0 mm 8 mps 757 mmHg 84%
14:00 +18°C° 0 mm 7 mps 756 mmHg 84%
15:00 +18°C° 0 mm 7 mps 756 mmHg 84%
16:00 +18°C° 0 mm 7 mps 756 mmHg 83%
17:00 +20°C° 0 mm 7 mps 756 mmHg 82%
18:00 +20°C° 0 mm 7 mps 756 mmHg 81%
19:00 +18°C° 0 mm 7 mps 757 mmHg 83%
20:00 +18°C° 0 mm 7 mps 757 mmHg 85%
21:00 +17°C° 0 mm 7 mps 757 mmHg 88%
22:00 +17°C° 0 mm 7 mps 757 mmHg 87%
23:00 +17°C° 0 mm 8 mps 757 mmHg 87%

Tomorrow, 5 July, Sunday

Time Temperature Precipitation Wind Pressure Humidity
00:00 +17°C° 0 mm 8 mps 756 mmHg 86%
01:00 +17°C° 0 mm 8 mps 756 mmHg 86%
02:00 +17°C° 0 mm 8 mps 756 mmHg 85%
03:00 +17°C° 0 mm 8 mps 755 mmHg 85%
04:00 +17°C° 0 mm 8 mps 755 mmHg 83%
05:00 +17°C° 0 mm 9 mps 755 mmHg 81%
06:00 +17°C° 0 mm 9 mps 755 mmHg 80%
07:00 +18°C° 0 mm 9 mps 755 mmHg 80%
08:00 +18°C° 0 mm 9 mps 755 mmHg 81%
09:00 +18°C° 0 mm 9 mps 755 mmHg 82%
10:00 +19°C° 0.1 mm 9 mps 755 mmHg 77%
11:00 +21°C° 0.1 mm 9 mps 755 mmHg 73%
12:00 +22°C° 0.1 mm 9 mps 755 mmHg 68%
13:00 +22°C° 0.1 mm 9 mps 755 mmHg 62%
14:00 +22°C° 0.1 mm 9 mps 756 mmHg 57%
15:00 +22°C° 0.1 mm 9 mps 756 mmHg 52%
16:00 +21°C° 0 mm 9 mps 756 mmHg 54%
17:00 +20°C° 0 mm 8 mps 756 mmHg 56%
18:00 +17°C° 0 mm 8 mps 756 mmHg 57%
19:00 +16°C° 0 mm 7 mps 757 mmHg 61%
20:00 +14°C° 0 mm 7 mps 757 mmHg 65%
21:00 +13°C° 0 mm 6 mps 757 mmHg 68%
22:00 +13°C° 0 mm 6 mps 757 mmHg 70%
23:00 +11°C° 0 mm 6 mps 757 mmHg 71%

Day after tomorrow, 6 July, Monday

Time Temperature Precipitation Wind Pressure Humidity
00:00 +11°C° 0 mm 6 mps 757 mmHg 72%
01:00 +10°C° 0 mm 6 mps 757 mmHg 74%
02:00 +10°C° 0 mm 6 mps 757 mmHg 76%
03:00 +10°C° 0 mm 6 mps 757 mmHg 78%
04:00 +10°C° 0 mm 6 mps 758 mmHg 76%
05:00 +11°C° 0 mm 7 mps 758 mmHg 73%
06:00 +12°C° 0 mm 7 mps 759 mmHg 71%
07:00 +14°C° 0 mm 7 mps 759 mmHg 66%
08:00 +15°C° 0 mm 7 mps 759 mmHg 61%
09:00 +16°C° 0 mm 7 mps 760 mmHg 57%
10:00 +16°C° 0 mm 7 mps 760 mmHg 57%
11:00 +16°C° 0 mm 7 mps 760 mmHg 56%
12:00 +16°C° 0 mm 6 mps 761 mmHg 56%
13:00 +17°C° 0 mm 6 mps 761 mmHg 55%
14:00 +17°C° 0 mm 6 mps 761 mmHg 54%
15:00 +19°C° 0 mm 6 mps 762 mmHg 54%
16:00 +19°C° 0.1 mm 5 mps 762 mmHg 56%
17:00 +19°C° 0.1 mm 5 mps 763 mmHg 58%
18:00 +19°C° 0.1 mm 5 mps 763 mmHg 59%
19:00 +18°C° 0.1 mm 4 mps 764 mmHg 65%
20:00 +16°C° 0.1 mm 3 mps 764 mmHg 70%
21:00 +14°C° 0.1 mm 3 mps 764 mmHg 75%
22:00 +13°C° 0 mm 3 mps 765 mmHg 74%
23:00 +12°C° 0 mm 3 mps 765 mmHg 73%

7 July, Tuesday

Time Temperature Precipitation Wind Pressure Humidity
00:00 +11°C° 0 mm 3 mps 765 mmHg 73%
01:00 +10°C° 0 mm 3 mps 765 mmHg 74%
02:00 +10°C° 0 mm 3 mps 765 mmHg 76%
03:00 +9°C° 0 mm 3 mps 764 mmHg 77%
04:00 +10°C° 0 mm 3 mps 765 mmHg 75%
05:00 +11°C° 0 mm 3 mps 765 mmHg 73%
06:00 +12°C° 0 mm 3 mps 765 mmHg 72%
07:00 +14°C° 0 mm 4 mps 765 mmHg 66%
08:00 +15°C° 0 mm 4 mps 765 mmHg 60%
09:00 +18°C° 0 mm 4 mps 765 mmHg 54%
10:00 +18°C° 0 mm 4 mps 765 mmHg 51%
11:00 +19°C° 0 mm 4 mps 765 mmHg 48%
12:00 +20°C° 0 mm 4 mps 765 mmHg 44%
13:00 +20°C° 0 mm 4 mps 765 mmHg 45%
14:00 +21°C° 0 mm 4 mps 765 mmHg 45%
15:00 +21°C° 0 mm 4 mps 765 mmHg 45%
16:00 +20°C° 0 mm 4 mps 765 mmHg 49%
17:00 +20°C° 0 mm 3 mps 765 mmHg 53%
18:00 +19°C° 0 mm 3 mps 764 mmHg 56%
19:00 +18°C° 0 mm 2 mps 765 mmHg 61%
20:00 +17°C° 0 mm 2 mps 765 mmHg 65%
21:00 +16°C° 0 mm 1 mps 765 mmHg 70%
22:00 +15°C° 0 mm 1 mps 765 mmHg 73%
23:00 +14°C° 0 mm 1 mps 764 mmHg 77%

8 July, Wednesday

Time Temperature Precipitation Wind Pressure Humidity
00:00 +13°C° 0 mm 2 mps 764 mmHg 80%
01:00 +14°C° 0 mm 2 mps 764 mmHg 80%
02:00 +14°C° 0 mm 2 mps 764 mmHg 79%
03:00 +14°C° 0 mm 2 mps 763 mmHg 78%
04:00 +15°C° 0 mm 2 mps 763 mmHg 76%
05:00 +14°C° 0 mm 3 mps 763 mmHg 74%
06:00 +14°C° 0 mm 3 mps 763 mmHg 71%
07:00 +17°C° 0 mm 4 mps 763 mmHg 65%
08:00 +17°C° 0 mm 5 mps 763 mmHg 59%
09:00 +20°C° 0 mm 6 mps 763 mmHg 53%
10:00 +21°C° 0 mm 6 mps 763 mmHg 53%
11:00 +22°C° 0 mm 6 mps 762 mmHg 53%
12:00 +23°C° 0 mm 7 mps 762 mmHg 53%
13:00 +24°C° 0 mm 7 mps 762 mmHg 54%
14:00 +24°C° 0 mm 7 mps 761 mmHg 55%
15:00 +24°C° 0 mm 7 mps 761 mmHg 57%
16:00 +23°C° 0 mm 7 mps 761 mmHg 60%
17:00 +22°C° 0 mm 6 mps 761 mmHg 64%
18:00 +22°C° 0 mm 6 mps 761 mmHg 68%
19:00 +20°C° 0 mm 6 mps 761 mmHg 73%
20:00 +19°C° 0 mm 5 mps 761 mmHg 77%
21:00 +17°C° 0 mm 5 mps 761 mmHg 82%
22:00 +17°C° 0 mm 5 mps 761 mmHg 83%
23:00 +17°C° 0 mm 5 mps 761 mmHg 84%

9 July, Thursday

Time Temperature Precipitation Wind Pressure Humidity
00:00 +17°C° 0 mm 4 mps 761 mmHg 85%
01:00 +17°C° 0 mm 4 mps 761 mmHg 83%
02:00 +17°C° 0 mm 4 mps 761 mmHg 81%
03:00 +17°C° 0 mm 4 mps 761 mmHg 79%
04:00 +15°C° 0 mm 4 mps 762 mmHg 74%
05:00 +15°C° 0 mm 4 mps 762 mmHg 69%
06:00 +15°C° 0 mm 4 mps 762 mmHg 63%
07:00 +16°C° 0 mm 3 mps 762 mmHg 60%
08:00 +17°C° 0 mm 3 mps 763 mmHg 56%
09:00 +18°C° 0 mm 3 mps 763 mmHg 53%
10:00 +19°C° 0 mm 2 mps 763 mmHg 49%
11:00 +20°C° 0 mm 2 mps 763 mmHg 45%
12:00 +21°C° 0 mm 2 mps 763 mmHg 41%
13:00 +23°C° 0 mm 2 mps 763 mmHg 40%
14:00 +23°C° 0 mm 2 mps 763 mmHg 40%
15:00 +24°C° 0 mm 2 mps 763 mmHg 39%
16:00 +22°C° 0 mm 3 mps 763 mmHg 44%
17:00 +21°C° 0 mm 3 mps 763 mmHg 49%
18:00 +20°C° 0 mm 4 mps 763 mmHg 54%
19:00 +19°C° 0 mm 3 mps 763 mmHg 59%
20:00 +18°C° 0 mm 3 mps 763 mmHg 64%
21:00 +17°C° 0 mm 3 mps 763 mmHg 68%
22:00 +16°C° 0.3 mm 3 mps 762 mmHg 75%
23:00 +14°C° 0.3 mm 3 mps 762 mmHg 81%
Show more